Weather History for KPYM - October, 2012

Change the Weather History Date:

Monday, October 8, 2012

  Actual Average Record
Temperature  
Mean Temperature 47 °F -  
Max Temperature 57 °F 65 °F 84 °F (1990)
Min Temperature 39 °F 41 °F 27 °F (1984)
Degree Days  
Heating Degree Days 18    
Moisture  
Dew Point 43 °F    
Average Humidity 81    
Maximum Humidity 100    
Minimum Humidity 59    
Precipitation  
Precipitation 0.02 in - - ()
Sea Level Pressure  
Sea Level Pressure 30.20 in    
Wind  
Wind Speed 5 mph (NNW)    
Max Wind Speed 9 mph    
Max Gust Speed -    
Visibility 9 miles    
Events Rain    
Averages and records for this station are not official NWS values.
T = Trace of Precipitation, MM = Missing Value Source: NWS Daily Summary

Daily Weather History Graph

Daily Weather History Graph

Search for Another Location

Airport or City:

Trip Planner

Search our weather history database for the weather conditions in past years. The results will help you decide how hot, cold, wet, or windy it might be!

Date:

Astronomy

Oct. 08, 2012 Rise Set
Actual Time 6:47 AM EDT 6:11 PM EDT
Civil Twilight 6:20 AM EDT 6:39 PM EDT
Nautical Twilight 5:47 AM EDT 7:12 PM EDT
Astronomical Twilight 5:15 AM EDT 7:44 PM EDT
Moon No Moon Rise 2:05 PM EDT (10/8)
Length of Visible Light 12h 19m
Length of Day
11h 24m
Waning Gibbous, 46% of the Moon is Illuminated
Oct 8
Waning Gibbous
Oct 15
New
Oct 21
First Quarter
Oct 29
Full
Nov 6
Last Quarter

Hourly Weather History & Observations

Time (EDT) Temp. Windchill Dew Point Humidity Pressure Visibility Wind Dir Wind Speed Gust Speed Precip Events Conditions
12:05 AM 48.2 °F - 44.6 °F 87% 30.06 in 10.0 mi WNW 9.2 mph - 0.00 in   Overcast
12:43 AM 48.2 °F - 44.6 °F 87% 30.08 in 8.0 mi WNW 8.1 mph - 0.01 in Rain Light Rain
12:52 AM 48.0 °F - 45.0 °F 89% 30.09 in 10.0 mi West 8.1 mph - 0.01 in Rain Light Rain
1:52 AM 46.9 °F - 45.0 °F 93% 30.10 in 10.0 mi WNW 3.5 mph - 0.01 in   Overcast
2:52 AM 46.9 °F - 44.1 °F 90% 30.08 in 10.0 mi WNW 4.6 mph - N/A   Mostly Cloudy
3:52 AM 45.0 °F 42.6 °F 43.0 °F 93% 30.09 in 10.0 mi NW 4.6 mph - N/A   Clear
4:52 AM 43.0 °F 40.3 °F 41.0 °F 93% 30.11 in 10.0 mi WNW 4.6 mph - N/A   Clear
5:52 AM 43.0 °F 41.3 °F 41.0 °F 93% 30.14 in 10.0 mi West 3.5 mph - N/A   Clear
6:52 AM 39.9 °F - 37.9 °F 93% 30.14 in 5.0 mi Calm Calm - N/A   Clear
7:19 AM 39.2 °F - 39.2 °F 100% 30.16 in 2.5 mi Calm Calm - N/A   Clear
7:27 AM 41.0 °F - 39.2 °F 93% 30.16 in 5.0 mi Calm Calm - N/A   Clear
7:52 AM 44.1 °F 41.5 °F 42.1 °F 93% 30.17 in 10.0 mi NW 4.6 mph - N/A   Clear
8:52 AM 48.9 °F - 44.1 °F 83% 30.21 in 10.0 mi NW 5.8 mph - N/A   Clear
9:52 AM 53.1 °F - 44.1 °F 71% 30.22 in 10.0 mi North 6.9 mph - N/A   Clear
10:52 AM 55.0 °F - 43.0 °F 64% 30.24 in 10.0 mi NNW 5.8 mph - N/A   Partly Cloudy
11:12 AM 53.6 °F - 42.8 °F 67% 30.24 in 10.0 mi NNW 4.6 mph - N/A   Mostly Cloudy
11:52 AM 55.0 °F - 41.0 °F 59% 30.25 in 10.0 mi Calm Calm - N/A   Scattered Clouds
12:52 PM 55.9 °F - 43.0 °F 62% 30.25 in 10.0 mi NNE 8.1 mph - N/A   Overcast
1:52 PM 55.0 °F - 41.0 °F 59% 30.25 in 10.0 mi ENE 5.8 mph - N/A   Partly Cloudy
2:52 PM 55.0 °F - 42.1 °F 62% 30.27 in 10.0 mi East 5.8 mph - N/A   Overcast
3:52 PM 54.0 °F - 42.1 °F 64% 30.26 in 10.0 mi ENE 5.8 mph - N/A   Mostly Cloudy
4:52 PM 53.1 °F - 41.0 °F 64% 30.27 in 10.0 mi East 5.8 mph - N/A   Clear
6:52 PM 51.1 °F - 45.0 °F 80% 30.30 in 10.0 mi Calm Calm - N/A   Clear
7:52 PM 48.9 °F - 45.0 °F 86% 30.30 in 10.0 mi Calm Calm - N/A   Scattered Clouds
8:52 PM 48.9 °F - 45.0 °F 86% 30.32 in 10.0 mi Calm Calm - N/A   Clear
9:52 PM 50.0 °F - 45.0 °F 83% 30.31 in 10.0 mi Calm Calm - N/A   Clear
10:52 PM 51.1 °F - 45.0 °F 80% 30.30 in 10.0 mi NE 3.5 mph - N/A   Clear
11:52 PM 48.9 °F - 45.0 °F 86% 30.29 in 10.0 mi East 3.5 mph - N/A   Scattered Clouds